Weather History for LHDC - November, 2012

Change the Weather History Date:

Monday, November 5, 2012

  Actual Average Record
Temperature  
Mean Temperature 60 °F -  
Max Temperature 68 °F 45 °F - ()
Min Temperature 50 °F 33 °F - ()
Degree Days  
Heating Degree Days 6    
Growing Degree Days 10 (Base 50)    
Moisture  
Dew Point 51 °F    
Average Humidity 68    
Maximum Humidity 94    
Minimum Humidity 52    
Precipitation  
Precipitation 0.43 in 0.06 in - ()
Sea Level Pressure  
Sea Level Pressure 29.52 in    
Wind  
Wind Speed 16 mph ()    
Max Wind Speed 28 mph    
Max Gust Speed 41 mph    
Visibility 6.6 miles    
Events Rain    
T = Trace of Precipitation, MM = Missing Value Source: Averaged Metar Reports

Daily Weather History Graph

Daily Weather History Graph

Search for Another Location

Airport or City:

Trip Planner

Search our weather history database for the weather conditions in past years. The results will help you decide how hot, cold, wet, or windy it might be!

Date:

Astronomy

Nov. 05, 2012 Rise Set
Actual Time 6:23 AM CET 4:09 PM CET
Civil Twilight 5:51 AM CET 4:42 PM CET
Nautical Twilight 5:14 AM CET 5:19 PM CET
Astronomical Twilight 4:38 AM CET 5:54 PM CET
Moon 9:28 PM CET (11/5) 11:34 AM CET (11/5)
Length of Visible Light 10h 51m
Length of Day
9h 46m
Waning Gibbous, 65% of the Moon is Illuminated
Nov 5
Waning Gibbous
Nov 7
Last Quarter
Nov 13
New
Nov 20
First Quarter
Nov 28
Full

Hourly Weather History & Observations

Time (CET) Temp. Dew Point Humidity Pressure Visibility Wind Dir Wind Speed Gust Speed Precip Events Conditions
1:00 AM 55 °F 47 °F 66% 29.76 in - SE 8.9 mph - -  
5:15 AM 59.0 °F 46.4 °F 63% 29.62 in - South 16.1 mph - N/A   Clear
5:45 AM 59.0 °F 46.4 °F 63% 29.62 in - South 16.1 mph - N/A   Clear
6:00 AM - - N/A% - - South 17.3 mph 28.8 mph N/A   Clear
6:15 AM 59.0 °F 46.4 °F 63% 29.59 in - South 15.0 mph - N/A   Clear
6:45 AM 60.8 °F 46.4 °F 59% 29.59 in 6.2 mi South 17.3 mph - N/A   Mostly Cloudy
7:00 AM 60 °F 47 °F 52% 29.59 in 25 mi South 17.9 mph - -   Partly Cloudy
7:15 AM 60.8 °F 46.4 °F 59% 29.59 in 6.2 mi South 19.6 mph - N/A   Mostly Cloudy
7:45 AM 60.8 °F 46.4 °F 59% 29.56 in 6.2 mi South 18.4 mph - N/A   Mostly Cloudy
8:15 AM 60.8 °F 48.2 °F 63% 29.56 in 6.2 mi South 20.7 mph - N/A   Mostly Cloudy
8:45 AM 62.6 °F 48.2 °F 59% 29.53 in 6.2 mi South 23.0 mph - N/A   Mostly Cloudy
8:55 AM 62.6 °F 48.2 °F 59% 29.53 in - South 20.7 mph - N/A   Unknown
9:00 AM - - N/A% - 5.0 mi SSW 23.0 mph 34.5 mph N/A Rain Light Rain
9:15 AM 62.6 °F 50.0 °F 63% 29.53 in 6.2 mi South 21.9 mph - N/A Rain Light Rain Showers
9:45 AM 60.8 °F 51.8 °F 72% 29.53 in 6.2 mi South 20.7 mph - N/A Rain Light Rain Showers
10:15 AM 60.8 °F 51.8 °F 72% 29.50 in 6.2 mi South 19.6 mph - N/A Rain Light Rain Showers
11:15 AM 66.2 °F 55.4 °F 68% 29.47 in 6.2 mi South 20.7 mph - N/A   Mostly Cloudy
11:18 AM 68.0 °F 53.6 °F 60% 29.47 in - South 23.0 mph 41.4 mph N/A   Unknown
11:20 AM 68.0 °F 53.6 °F 60% 29.47 in 6.2 mi South 26.5 mph 40.3 mph N/A   Mostly Cloudy
11:45 AM 68.0 °F 53.6 °F 60% 29.44 in 6.2 mi South 27.6 mph - N/A   Mostly Cloudy
12:00 PM - - N/A% - 5.0 mi SSW 23.0 mph 34.5 mph N/A Rain Light Rain
12:15 PM 68.0 °F 53.6 °F 60% 29.44 in 6.2 mi South 24.2 mph - N/A   Scattered Clouds
12:45 PM 68.0 °F 53.6 °F 60% 29.44 in 6.2 mi South 21.9 mph - N/A Rain Light Rain Showers
1:00 PM 68 °F 54 °F 52% 29.43 in 19 mi South 20.1 mph - - Rain Light Rain Showers
1:15 PM 68.0 °F 53.6 °F 60% 29.44 in 6.2 mi South 20.7 mph - N/A   Mostly Cloudy
1:45 PM 66.2 °F 55.4 °F 68% 29.47 in 6.2 mi SW 18.4 mph - N/A   Mostly Cloudy
2:15 PM 64.4 °F 55.4 °F 73% 29.47 in 6.2 mi WSW 16.1 mph - N/A   Mostly Cloudy
2:45 PM 62.6 °F 55.4 °F 77% 29.47 in 6.2 mi SW 16.1 mph - N/A   Mostly Cloudy
3:15 PM 57.2 °F 53.6 °F 88% 29.47 in 6.2 mi West 9.2 mph - N/A   Mostly Cloudy
3:45 PM 55.4 °F 51.8 °F 88% 29.47 in 6.2 mi West 9.2 mph - N/A Rain Light Rain Showers
4:15 PM 53.6 °F 51.8 °F 94% 29.50 in 6.2 mi West 8.1 mph - N/A Rain Light Rain Showers
4:45 PM 51.8 °F 50.0 °F 94% 29.50 in 6.2 mi West 11.5 mph - N/A Rain Light Rain Showers
6:00 PM - - N/A% - - North - - N/A   Unknown
7:00 PM 50 °F 49 °F 94% 29.55 in - West 8.9 mph - -